Simultaneous Nadir Overpasses (SNOs) Predictions

Prediction of SNOs between GOES-17 and TERRA Satellite Orbit:

Table of predicted SNOs for the next 14.0 days since TLE Epoch: 10/23/2021
Index Date Time (GOES-17) GOES-17 Lat,Lon TERRA Lat,Lon Distance(km) Time Diff (sec)
1 10/24/2021 07:29:26 0.05,-137.22 0.26,-136.36 98.55 80
2 10/24/2021 19:50:40 -0.05,-137.22 0.88,-141.50 487.11 80
3 10/26/2021 07:17:11 0.04,-137.22 0.86,-133.39 435.59 80
4 10/26/2021 19:38:26 -0.04,-137.23 0.22,-138.55 150.20 80
5 10/28/2021 19:28:51 -0.04,-137.22 -0.39,-135.59 186.15 80
6 10/29/2021 07:50:14 0.03,-137.22 -0.74,-140.77 404.76 80
7 10/31/2021 07:38:00 0.03,-137.21 -0.07,-137.82 69.15 80
8 11/02/2021 07:23:05 0.03,-137.19 0.54,-134.86 266.08 80
9 11/02/2021 19:44:19 -0.03,-137.19 0.60,-140.00 320.39 80
10 11/04/2021 19:34:45 -0.03,-137.17 -0.08,-137.05 14.23 80
